Location: ?
(35.4214°N, 139.3011°E)
Time: 22:42:43
(UTC+00:00)

Cosmos 44 - Pass Details

Date: 14 July 2020
Orbit: 586 x 775 km, 65.1° (Epoch: 10 August)

Event Time Altitude Azimuth Distance (km) Brightness Sun altitude
Rises 10:53:41 0° 189° (S) 2,799 6.2 -10.4°
Reaches altitude 10° 10:56:01 10° 180° (S) 1,899 5.2 -10.7°
Maximum altitude 10:59:56 37° 113° (ESE) 923 3.5 -11.4°
Drops below altitude 10° 11:03:55 10° 46° (NE) 1,936 5.5 -12.0°
Sets 11:06:19 0° 38° (NE) 2,861 6.5 -12.4°
